[[{"header":{"parameterUnit":"m.s-1","parameterCategory":2,"la1":30.2991,"la2":30.254,"lo1":-89.0895,"lo2":-89.0444,"dy":0.0017,"dx":0.0017,"nx":28,"ny":28,"refTime":"2025-06-15T09:00:00:Z","depth":"0","parameterNumber":2,"parameterNumberName":"U-component_of_CURRENTS"},"data":[0,0,0,0,0,0,0,0,0,0,0,0,0,0,0,0,0,0,0,0,0,0,0,0,0,0,0,0,0,0,0,0,0,0,0,0,0,0,0,0,0,0,0,0,0,0,0,0,0,0,0,0,0,0,0,0,0,0,0.316,0.3162,0,0.3231,0.3231,0.3231,0.3193,0.3192,0.3191,0.319,0.3241,0.3244,0.3246,0,0,0,0,0,0,0,0,0,0,0,0,0,0.2942,0.2946,0.316,0.3162,0.3164,0.3231,0.3231,0.3231,0.3193,0.3192,0.3191,0.319,0.3241,0.3243,0.3246,0,0,0,0,0,0,0,0,0,0,0,0,0,0.3017,0.2947,0.316,0.3161,0.3162,0.3231,0.3231,0.3231,0.3193,0.3192,0.319,0.3189,0.324,0.3243,0.3246,0.3295,0,0,0.3257,0.3258,0,0,0,0,0,0,0,0,0.3013,0.3024,0.3159,0.3161,0.3163,0.3211,0.3174,0.3255,0.3194,0.317,0.319,0.3188,0.3238,0.3241,0.3242,0.3298,0.33,0.3257,0.3259,0.326,0.3261,0,0,0,0,0,0,0,0.3008,0.302,0.3177,0.3161,0.3164,0.3142,0.315,0.3188,0.3202,0.3172,0.3172,0.3198,0.3237,0.3239,0.3244,0.3301,0.3257,0.326,0.3262,0.3263,0.3388,0.3389,0,0,0,0,0,0,0.3026,0.3016,0.3175,0.3181,0.3095,0.3148,0.3157,0.3188,0.3202,0.3206,0.3199,0.3196,0.3234,0.324,0.3245,0.33,0.326,0.3264,0.3265,0.3386,0.3388,0.3389,0,0,0,0,0,0,0.3021,0.304,0.3173,0.3107,0.3124,0.3155,0.319,0.3191,0.3197,0.3225,0.3226,0.3206,0.3233,0.3241,0.3283,0.3302,0.3265,0.3268,0.3385,0.3387,0.3389,0.3413,0,0,0,0,0,0,0.3014,0.3037,0.3061,0.3109,0.3129,0.3219,0.3192,0.3194,0.3221,0.3217,0.3232,0.3234,0.3233,0.3278,0.3286,0.3306,0.3271,0.3383,0.3386,0.3388,0.341,0.3415,0.342,0,0,0,0,0,0.3006,0.3054,0.3061,0.3081,0.3162,0.3221,0.3228,0.3236,0.3222,0.3233,0.3241,0.3234,0.3298,0.3282,0.3291,0.3312,0.3382,0.3385,0.3388,0.3408,0.3414,0.342,0,0,0,0,0,0,0.2967,0.3058,0.3066,0.3136,0.3177,0.3219,0.3245,0.3246,0.3261,0.3258,0.326,0.3265,0.3308,0.3314,0.3295,0.3355,0.3337,0.3341,0.3349,0.3355,0.3359,0.3373,0.3273,0,0,0,0,0,0.2975,0.3039,0.31,0.3158,0.3182,0.3211,0.3235,0.3243,0.3271,0.3275,0.3287,0.3303,0.3329,0.3343,0.3368,0.341,0.3452,0.3428,0.3432,0.3436,0.3454,0.3539,0.3554,0.3399,0.3399,0.3399,0,0,0.2978,0.3039,0.3073,0.3155,0.3186,0.3219,0.3219,0.3268,0.3285,0.3283,0.3309,0.3328,0.3346,0.3384,0.3403,0.3389,0.3503,0.344,0.3443,0.3459,0.3544,0.3559,0.3573,0.3401,0.34,0.34,0,0,0.3014,0.3068,0.3122,0.316,0.3227,0.3242,0.3259,0.3303,0.331,0.3346,0.3347,0.3385,0.3414,0.3436,0.3449,0.3502,0.3529,0.3501,0.3533,0.3615,0.3629,0.3642,0.3717,0.3736,0.3498,0.3498,0.3498,0,0.3002,0.3082,0.3142,0.3194,0.3222,0.3251,0.3281,0.3305,0.3351,0.3377,0.3355,0.3433,0.344,0.3506,0.3509,0.3514,0.3564,0.3506,0.3622,0.3636,0.3648,0.3723,0.3744,0.3499,0.3499,0.3499,0.3499,0,0.3072,0.3123,0.3161,0.3228,0.3261,0.3302,0.3341,0.337,0.3377,0.3405,0.3473,0.3494,0.3544,0.3544,0.3536,0.3629,0.3637,0.3622,0.3608,0.3666,0.374,0.3761,0.3502,0.3501,0.3501,0.35,0,0,0.3055,0.318,0.3186,0.3215,0.3278,0.3313,0.3353,0.3407,0.3447,0.3486,0.355,0.3586,0.3617,0.3635,0.3646,0.3701,0.3817,0.3695,0.3698,0.377,0.4009,0.3957,0.3976,0.3825,0.3829,0.3832,0.4026,0,0.3071,0.3169,0.3217,0.327,0.3312,0.3347,0.3382,0.3439,0.3478,0.3551,0.3606,0.3669,0.3647,0.3677,0.3737,0.381,0.3875,0.3767,0.3943,0.3948,0.3896,0.3999,0.3811,0.3964,0.4047,0.4051,0.4053,0,0.3104,0.3168,0.3234,0.3304,0.3322,0.3346,0.3414,0.3455,0.3564,0.3603,0.3692,0.3743,0.3857,0.381,0.3989,0.3925,0.3972,0.4012,0.4021,0.3982,0.3937,0.392,0.4,0.3877,0.4086,0.4083,0.4081,0,0.3078,0.3166,0.3217,0.3244,0.3331,0.3354,0.3386,0.3476,0.3525,0.3656,0.3719,0.3854,0.3937,0.4034,0.4118,0.4072,0.4304,0.4252,0.4256,0.4252,0.4133,0.4112,0.4114,0.4375,0.4375,0.4374,0.4374,0,0.3087,0.3118,0.3212,0.3245,0.3285,0.3348,0.3399,0.3459,0.3565,0.3648,0.3755,0.3853,0.3996,0.4134,0.4187,0.4309,0.4374,0.43,0.4313,0.4134,0.4113,0.403,0.3997,0.4382,0.438,0.4379,0.4377,0,0.3059,0.3125,0.318,0.3265,0.3283,0.3314,0.3385,0.3439,0.3543,0.3661,0.3712,0.3902,0.4093,0.4223,0.4402,0.4401,0.4392,0.4519,0.4297,0.428,0.4134,0.411,0.4047,0.3942,0.4573,0.4573,0.4573,0,0.3059,0.3096,0.3178,0.3205,0.3238,0.3287,0.3324,0.3415,0.3472,0.3682,0.3744,0.3972,0.4106,0.4366,0.4429,0.4556,0.4415,0.4423,0.4287,0.4135,0.412,0.3958,0.3861,0.4148,0.4145,0.4142,0.414,0,0.3049,0.3079,0.3134,0.3184,0.3221,0.325,0.3307,0.3341,0.3471,0.3579,0.3742,0.3873,0.4134,0.4194,0.4357,0.4394,0.4202,0.4368,0.4272,0.3854,0.362,0.3519,0.4014,0.4115,0.4117,0.4119,0.412,0.4121,0.3027,0.3056,0.3128,0.3155,0.3189,0.3196,0.3185,0.3262,0.3333,0.3451,0.365,0.3761,0.3921,0.4131,0.4157,0.4053,0.4068,0.3916,0.3927,0.3797,0.3596,0.404,0.4106,0.4108,0.411,0.4112,0.4114,0,0.2996,0.3044,0.3088,0.3114,0.3105,0.3141,0.316,0.3128,0.316,0.3301,0.3424,0.3526,0.3595,0.3694,0.372,0.3615,0.3438,0.352,0.3235,0.3185,0.3639,0.3516,0.338,0.338,0.338,0.338,0.338,0.3381,0.2989,0.3029,0.3047,0.3018,0.3021,0.2958,0.2938,0.2913,0.2943,0.2956,0.2982,0.3111,0.3314,0.344,0.3352,0.3267,0.3036,0.2902,0.2937,0.3238,0.3273,0.3306,0.3179,0.2975,0.2974,0.2292,0.2287,0.2283]},{"header":{"parameterUnit":"m.s-1","parameterCategory":2,"la1":30.2991,"la2":30.254,"lo1":-89.0895,"lo2":-89.0444,"dy":0.0017,"dx":0.0017,"nx":28,"ny":28,"refTime":"2025-06-15T09:00:00:Z","depth":"0","parameterNumber":3,"parameterNumberName":"V-component_of_CURRENTS"},"data":[0,0,0,0,0,0,0,0,0,0,0,0,0,0,0,0,0,0,0,0,0,0,0,0,0,0,0,0,0,0,0,0,0,0,0,0,0,0,0,0,0,0,0,0,0,0,0,0,0,0,0,0,0,0,0,0,0,0,0.0227,0.0227,0,0.0163,0.0162,0.0161,0.0127,0.0127,0.0127,0.0127,0.0064,0.0062,0.006,0,0,0,0,0,0,0,0,0,0,0,0,0,0.0232,0.0233,0.0227,0.0226,0.0226,0.0163,0.0162,0.016,0.0126,0.0127,0.0127,0.0127,0.0065,0.0062,0.006,0,0,0,0,0,0,0,0,0,0,0,0,0,0.0203,0.0233,0.0227,0.0204,0.0201,0.0163,0.0162,0.016,0.0126,0.0127,0.0127,0.0127,0.0065,0.0063,0.006,0.0036,0,0,0.0051,0.005,0,0,0,0,0,0,0,0,0.0204,0.0202,0.0208,0.0205,0.0202,0.0156,0.014,0.012,0.0126,0.0152,0.0127,0.0128,0.0097,0.0091,0.0074,0.0033,0.0031,0.0051,0.0049,0.0048,0.0047,0,0,0,0,0,0,0,0.0207,0.0204,0.0198,0.0207,0.0204,0.0166,0.0163,0.0136,0.0121,0.0149,0.0148,0.0145,0.0095,0.0077,0.0072,0.003,0.0051,0.0049,0.0047,0.0046,-0.0008,-0.0008,0,0,0,0,0,0,0.0225,0.0207,0.0201,0.0197,0.0207,0.0166,0.0162,0.0168,0.0121,0.0115,0.0145,0.0144,0.0081,0.0076,0.007,0.0089,0.0048,0.0046,0.0044,-0.0008,-0.0008,-0.0008,0,0,0,0,0,0,0.0225,0.0225,0.0203,0.0202,0.0197,0.0167,0.0173,0.0166,0.0153,0.0118,0.0112,0.0139,0.0081,0.0074,0.0059,0.0085,0.0044,0.0042,-0.0009,-0.0008,-0.0008,0.0096,0,0,0,0,0,0,0.0226,0.0226,0.0235,0.0204,0.0198,0.0197,0.0172,0.0165,0.0152,0.015,0.0111,0.0105,0.0081,0.0064,0.0057,0.008,0.004,-0.0009,-0.0009,-0.0008,0.0092,0.01,0.0106,0,0,0,0,0,0.0226,0.0245,0.0236,0.0235,0.0212,0.0198,0.0192,0.0168,0.0152,0.0155,0.0128,0.0106,0.0062,0.0062,0.0053,0.0077,-0.0009,-0.0009,-0.0008,0.0089,0.0098,0.0106,0,0,0,0,0,0,0.0253,0.0243,0.0232,0.0246,0.023,0.0194,0.0196,0.0172,0.0149,0.0148,0.0109,0.0102,0.01,0.0066,0.0067,0.0059,0.0022,0.0021,0.0099,0.0107,0.0114,0.0148,0.0037,0,0,0,0,0,0.0263,0.0273,0.0253,0.0263,0.0261,0.0226,0.0216,0.0198,0.0175,0.0164,0.0137,0.0107,0.0092,0.0083,0.006,0.0053,0.0032,0.006,0.0067,0.0074,0.0093,0.0094,0.0104,-0.0006,-0.0006,-0.0006,0,0,0.0275,0.0271,0.0276,0.0269,0.0254,0.0261,0.0221,0.0215,0.0223,0.0162,0.0164,0.0132,0.0095,0.0096,0.0091,0.0073,0.0088,0.0074,0.0081,0.0097,0.0096,0.0107,0.0117,-0.0006,-0.0006,-0.0006,0,0,0.0306,0.0304,0.0323,0.0316,0.0302,0.0287,0.0289,0.0259,0.0253,0.0241,0.0209,0.0199,0.0155,0.0151,0.0139,0.0167,0.0127,0.0147,0.0213,0.0214,0.0224,0.0232,0.0205,0.021,0.0151,0.0151,0.0151,0,0.0317,0.0346,0.0324,0.0339,0.0346,0.0306,0.0328,0.0315,0.0283,0.0294,0.0257,0.0227,0.019,0.0217,0.0221,0.0189,0.0167,0.019,0.0227,0.0235,0.0242,0.0212,0.0216,0.0156,0.0155,0.0155,0.0154,0,0.0363,0.0384,0.0397,0.041,0.0409,0.0423,0.0409,0.0411,0.039,0.0379,0.0391,0.034,0.0331,0.0309,0.027,0.0305,0.0265,0.024,0.0216,0.026,0.0224,0.0227,0.0163,0.0161,0.016,0.0159,0,0,0.0396,0.0426,0.0432,0.0457,0.0452,0.0462,0.0485,0.0508,0.0549,0.0503,0.0554,0.0505,0.048,0.0464,0.0419,0.0407,0.042,0.0345,0.0343,0.0335,0.0401,0.0365,0.0364,0.0403,0.0404,0.0406,0.0351,0,0.0441,0.0499,0.0496,0.0552,0.0585,0.0568,0.0604,0.0614,0.0616,0.0655,0.0616,0.064,0.054,0.0548,0.0521,0.0463,0.0435,0.0436,0.0344,0.0341,0.0319,0.037,0.0353,0.0303,0.0353,0.0354,0.0354,0,0.049,0.0528,0.0593,0.0651,0.0666,0.0691,0.0757,0.0783,0.0821,0.0826,0.0832,0.0803,0.0796,0.0701,0.0618,0.0622,0.0518,0.0451,0.0447,0.0386,0.0312,0.0267,0.0306,0.0139,0.0358,0.0358,0.0358,0,0.054,0.0599,0.0662,0.0676,0.0728,0.0765,0.0798,0.084,0.0898,0.095,0.1004,0.0966,0.0981,0.0858,0.0705,0.0668,0.0605,0.0539,0.04,0.0395,0.035,0.0339,0.0238,0.0472,0.0472,0.0473,0.0473,0,0.0598,0.0648,0.0696,0.0732,0.0825,0.0833,0.094,0.0968,0.1046,0.1151,0.1105,0.1181,0.1023,0.0964,0.0779,0.0615,0.066,0.0431,0.0394,0.0381,0.0374,0.0201,0.0093,0.047,0.0471,0.0471,0.0472,0,0.0642,0.067,0.0749,0.0821,0.0849,0.0918,0.1028,0.1119,0.1176,0.1316,0.1348,0.1363,0.1292,0.1106,0.0929,0.0739,0.0461,0.0484,0.0466,0.0429,0.0131,0.0029,-0.0104,-0.0185,0.0327,0.0326,0.0326,0,0.0673,0.0715,0.081,0.0872,0.091,0.1012,0.1098,0.1174,0.128,0.1435,0.1521,0.1515,0.1529,0.1254,0.0933,0.0626,0.0439,0.039,0.0314,0.0133,-0.0007,-0.0065,-0.0127,0.0279,0.0278,0.0277,0.0276,0,0.0734,0.0761,0.0831,0.0952,0.1049,0.1168,0.1297,0.1395,0.1519,0.1658,0.1816,0.1845,0.1599,0.131,0.0894,0.0664,0.0269,0.036,0.0191,-0.0029,-0.0115,-0.0215,0.0271,0.0268,0.0269,0.0269,0.027,0.027,0.0778,0.0842,0.0932,0.1047,0.1163,0.1316,0.1431,0.1594,0.1785,0.2004,0.2013,0.2086,0.1644,0.1089,0.0769,0.0187,0.0191,-0.0011,-0.0114,-0.0151,-0.0237,0.0222,0.0169,0.0169,0.0169,0.0169,0.017,0,0.0836,0.0912,0.1026,0.1173,0.1308,0.1356,0.1562,0.1708,0.1953,0.2128,0.2266,0.2066,0.1522,0.0964,0.0181,-0.0212,-0.0344,-0.0425,-0.0517,-0.0556,-0.0131,-0.0141,-0.0284,-0.0284,-0.0284,-0.0283,-0.0283,-0.0283,0.0877,0.0987,0.1047,0.1265,0.1376,0.1568,0.169,0.1923,0.2081,0.2302,0.2328,0.2314,0.1877,0.0491,-0.0415,-0.0621,-0.0876,-0.0947,-0.1059,-0.079,-0.0759,-0.073,-0.0763,-0.1033,-0.1035,-0.1426,-0.1431,-0.1434]}],[{"header":{"parameterUnit":"m.s-1","parameterCategory":2,"la1":30.2991,"la2":30.254,"lo1":-89.0895,"lo2":-89.0444,"dy":0.0017,"dx":0.0017,"nx":28,"ny":28,"refTime":"2025-06-15T09:00:00:Z","depth":"2","parameterNumber":2,"parameterNumberName":"U-component_of_CURRENTS"},"data":[0,0,0,0,0,0,0,0,0,0,0,0,0,0,0,0,0,0,0,0,0,0,0,0,0,0,0,0,0,0,0,0,0,0,0,0,0,0,0,0,0,0,0,0,0,0,0,0,0,0,0,0,0,0,0,0,0,0,0.3039,0.304,0,0.3104,0.3104,0.3104,0.307,0.3069,0.3068,0.3068,0.3088,0.3089,0.309,0,0,0,0,0,0,0,0,0,0,0,0,0,0.2716,0.2722,0.3039,0.3041,0.3043,0.3104,0.3104,0.3103,0.307,0.3069,0.3068,0.3068,0.3088,0.3089,0.309,0,0,0,0,0,0,0,0,0,0,0,0,0,0.2815,0.2724,0.3038,0.3043,0.3045,0.3104,0.3104,0.3103,0.307,0.3069,0.3068,0.3067,0.3087,0.3089,0.309,0.3117,0,0,0.3095,0.3096,0,0,0,0,0,0,0,0,0.2809,0.2825,0.304,0.3043,0.3045,0.3089,0.2998,0.311,0.307,0.3047,0.3068,0.3067,0.3094,0.3094,0.3091,0.3118,0.3119,0.3095,0.3096,0.3097,0.3097,0,0,0,0,0,0,0,0.2803,0.2821,0.3051,0.3043,0.3046,0.2985,0.2998,0.3018,0.3063,0.3049,0.305,0.3078,0.3092,0.3089,0.3091,0.3119,0.3095,0.3097,0.3098,0.3098,0.3199,0.3201,0,0,0,0,0,0,0.2832,0.2817,0.305,0.3055,0.2937,0.2993,0.3007,0.3065,0.3064,0.3067,0.3078,0.3076,0.3087,0.3089,0.3092,0.3148,0.3097,0.3099,0.3099,0.3197,0.32,0.3201,0,0,0,0,0,0,0.2825,0.2853,0.3047,0.2944,0.2966,0.3002,0.3066,0.3067,0.3075,0.3089,0.3088,0.3088,0.3086,0.309,0.3119,0.3148,0.3099,0.3101,0.3195,0.3198,0.32,0.3246,0,0,0,0,0,0,0.2816,0.2851,0.2883,0.2948,0.2974,0.3093,0.3068,0.307,0.31,0.3097,0.3098,0.3098,0.3086,0.3117,0.3121,0.3149,0.3102,0.3193,0.3197,0.32,0.3242,0.325,0.3256,0,0,0,0,0,0.2805,0.2874,0.2885,0.2913,0.3026,0.3096,0.3101,0.3112,0.3101,0.3112,0.3112,0.3098,0.314,0.312,0.3124,0.3153,0.3192,0.3196,0.3199,0.3239,0.3248,0.3256,0,0,0,0,0,0,0.2752,0.2881,0.2893,0.2998,0.3044,0.3095,0.3122,0.3124,0.3132,0.3131,0.312,0.3121,0.3162,0.3156,0.3133,0.3194,0.3165,0.317,0.3194,0.3202,0.3209,0.3218,0.3103,0,0,0,0,0,0.276,0.2853,0.2933,0.3016,0.3046,0.308,0.3105,0.3118,0.3148,0.3149,0.3151,0.316,0.3181,0.3188,0.3206,0.3237,0.3258,0.3261,0.3268,0.3273,0.3286,0.3334,0.3346,0.3214,0.3214,0.3214,0,0,0.2774,0.2852,0.2907,0.3011,0.3049,0.3085,0.3091,0.3152,0.317,0.3154,0.3175,0.3191,0.3199,0.3233,0.325,0.3229,0.3327,0.3278,0.3283,0.3292,0.3339,0.3352,0.3363,0.3217,0.3216,0.3216,0,0,0.2828,0.2907,0.298,0.3017,0.3092,0.3111,0.3133,0.3186,0.3197,0.3228,0.3227,0.3265,0.3278,0.3298,0.3307,0.3368,0.3369,0.337,0.3404,0.3451,0.3462,0.3472,0.3535,0.355,0.3365,0.3365,0.3365,0,0.2804,0.2927,0.3004,0.3053,0.308,0.3123,0.3156,0.3184,0.3232,0.3261,0.3241,0.3311,0.3312,0.3375,0.3384,0.3385,0.3412,0.3367,0.346,0.347,0.3479,0.3541,0.3557,0.3367,0.3367,0.3367,0.3367,0,0.2905,0.2969,0.3017,0.3091,0.3122,0.3174,0.3219,0.3254,0.3268,0.3298,0.3373,0.3388,0.3432,0.3437,0.3419,0.3497,0.3497,0.3468,0.3435,0.3495,0.3557,0.3573,0.3371,0.337,0.3369,0.3369,0,0,0.2892,0.305,0.3055,0.3083,0.3142,0.3184,0.3228,0.3291,0.3341,0.3382,0.345,0.3488,0.352,0.3534,0.3542,0.3568,0.3653,0.3539,0.354,0.3598,0.3773,0.3581,0.358,0.3633,0.3635,0.3637,0.3797,0,0.2913,0.3027,0.3085,0.3139,0.3184,0.3221,0.3259,0.3321,0.337,0.3448,0.3508,0.3573,0.3552,0.3583,0.3616,0.3657,0.3694,0.3614,0.3711,0.3715,0.3531,0.3591,0.3322,0.3423,0.3813,0.3815,0.3817,0,0.2957,0.3027,0.311,0.318,0.32,0.3225,0.3302,0.3347,0.3463,0.3509,0.36,0.3651,0.3748,0.3693,0.3816,0.3765,0.3774,0.3787,0.3793,0.3605,0.355,0.3423,0.3437,0.3844,0.3842,0.384,0.3838,0,0.2931,0.3021,0.3095,0.3119,0.3212,0.3241,0.3276,0.3372,0.3428,0.3564,0.3631,0.3751,0.3826,0.3871,0.3911,0.3871,0.4021,0.3974,0.3821,0.3811,0.3595,0.3558,0.4039,0.4039,0.4039,0.4038,0.4038,0,0.2941,0.298,0.3094,0.3136,0.3181,0.3241,0.3303,0.3368,0.3477,0.3563,0.367,0.3766,0.3866,0.3961,0.3969,0.3955,0.4082,0.3845,0.3833,0.3603,0.3566,0.393,0.3915,0.4044,0.4043,0.4042,0.4041,0,0.292,0.3008,0.307,0.3166,0.3184,0.3219,0.3292,0.3351,0.3463,0.3582,0.3632,0.3813,0.3942,0.4025,0.412,0.4016,0.4026,0.3979,0.3706,0.3653,0.3779,0.3765,0.384,0.3834,0.383,0.3826,0.3822,0,0.294,0.2982,0.3074,0.3099,0.314,0.3192,0.3228,0.3328,0.3388,0.3602,0.3661,0.3842,0.3914,0.3998,0.391,0.3895,0.3995,0.3561,0.3398,0.3775,0.3758,0.3751,0.3744,0.3174,0.3166,0.3159,0.3154,0,0.2932,0.2966,0.3025,0.3076,0.3114,0.3147,0.3207,0.3244,0.3383,0.3477,0.3621,0.3696,0.3787,0.3637,0.3577,0.3511,0.3534,0.3411,0.3922,0.322,0.3146,0.3128,0.3144,0.3093,0.3099,0.3103,0.3106,0.3109,0.2904,0.2924,0.2999,0.3027,0.3071,0.3089,0.3078,0.3146,0.3205,0.3246,0.3409,0.3372,0.3388,0.3139,0.3056,0.2972,0.3178,0.2993,0.3016,0.3046,0.2893,0.2809,0.2669,0.2673,0.2676,0.2679,0.2681,0,0.2839,0.2893,0.2935,0.2968,0.2965,0.3027,0.3052,0.2996,0.3001,0.2993,0.2996,0.2689,0.2575,0.265,0.2426,0.2342,0.2339,0.2245,0.2259,0.232,0.2374,0.2189,0.1778,0.1775,0.1772,0.177,0,0,0.2824,0.2847,0.2865,0.2845,0.287,0.2829,0.2818,0.2721,0.2666,0.2471,0.2349,0.2371,0.2515,0.2101,0.2046,0.1906,0.2094,0.1813,0.2539,0.2619,0.267,0.2806,0.2586,0,0,0,0,0]},{"header":{"parameterUnit":"m.s-1","parameterCategory":2,"la1":30.2991,"la2":30.254,"lo1":-89.0895,"lo2":-89.0444,"dy":0.0017,"dx":0.0017,"nx":28,"ny":28,"refTime":"2025-06-15T09:00:00:Z","depth":"2","parameterNumber":3,"parameterNumberName":"V-component_of_CURRENTS"},"data":[0,0,0,0,0,0,0,0,0,0,0,0,0,0,0,0,0,0,0,0,0,0,0,0,0,0,0,0,0,0,0,0,0,0,0,0,0,0,0,0,0,0,0,0,0,0,0,0,0,0,0,0,0,0,0,0,0,0,0.0105,0.0105,0,0.0038,0.0037,0.0036,0.0005,0.0006,0.0006,0.0007,-0.0088,-0.0091,-0.0094,0,0,0,0,0,0,0,0,0,0,0,0,0,0.0104,0.0104,0.0105,0.0105,0.0104,0.0039,0.0037,0.0036,0.0005,0.0006,0.0006,0.0007,-0.0087,-0.0091,-0.0094,0,0,0,0,0,0,0,0,0,0,0,0,0,0.0074,0.0105,0.0105,0.0084,0.0082,0.0039,0.0037,0.0036,0.0005,0.0006,0.0007,0.0007,-0.0086,-0.009,-0.0094,-0.0134,0,0,-0.0108,-0.011,0,0,0,0,0,0,0,0,0.0076,0.0074,0.0087,0.0085,0.0083,0.0034,0.0002,-0.0021,0.0005,0.003,0.0007,0.0007,-0.0048,-0.0055,-0.0074,-0.0138,-0.0142,-0.0108,-0.0111,-0.0113,-0.0114,0,0,0,0,0,0,0,0.0078,0.0076,0.0075,0.0087,0.0084,0.0043,0.004,-0.0003,-0.0015,0.0028,0.0027,0.0025,-0.005,-0.007,-0.0077,-0.0144,-0.0108,-0.0112,-0.0115,-0.0116,-0.0185,-0.0184,0,0,0,0,0,0,0.0099,0.0079,0.0077,0.0073,0.0085,0.0043,0.004,0.0046,-0.0014,-0.0021,0.0025,0.0024,-0.0063,-0.0072,-0.008,-0.0063,-0.0113,-0.0117,-0.0119,-0.0186,-0.0185,-0.0184,0,0,0,0,0,0,0.01,0.01,0.008,0.0077,0.0072,0.0044,0.005,0.0044,0.0034,-0.0015,-0.0024,0.0022,-0.0063,-0.0074,-0.0099,-0.0069,-0.0119,-0.0123,-0.0187,-0.0185,-0.0184,-0.0072,0,0,0,0,0,0,0.01,0.0101,0.011,0.0079,0.0073,0.0073,0.005,0.0043,0.0033,0.0032,-0.0021,-0.0029,-0.0063,-0.0092,-0.0104,-0.0076,-0.0126,-0.0188,-0.0186,-0.0185,-0.0077,-0.0067,-0.0059,0,0,0,0,0,0.01,0.012,0.0111,0.0111,0.0088,0.0074,0.0067,0.0045,0.0033,0.0035,0.0003,-0.0027,-0.009,-0.0096,-0.0109,-0.0082,-0.0188,-0.0187,-0.0185,-0.0081,-0.0069,-0.0059,0,0,0,0,0,0,0.0126,0.0118,0.0107,0.0124,0.0107,0.0071,0.0074,0.0051,0.0024,0.0024,-0.0027,-0.0037,-0.0043,-0.0086,-0.009,-0.0098,-0.0141,-0.0142,-0.0057,-0.0047,-0.0038,-0.0008,-0.013,0,0,0,0,0,0.0136,0.0148,0.0128,0.014,0.0139,0.0104,0.0095,0.0079,0.0052,0.0041,0.0004,-0.003,-0.005,-0.0066,-0.0095,-0.0111,-0.0148,-0.0101,-0.0092,-0.0084,-0.0069,-0.0101,-0.0094,-0.0178,-0.0178,-0.0178,0,0,0.015,0.0146,0.0153,0.0146,0.0132,0.0137,0.01,0.0097,0.0105,0.0033,0.0033,-0.0003,-0.0047,-0.0051,-0.0057,-0.0081,-0.008,-0.0081,-0.0074,-0.0063,-0.0099,-0.009,-0.0083,-0.0177,-0.0177,-0.0177,0,0,0.0183,0.0183,0.0203,0.0193,0.0181,0.0166,0.017,0.014,0.0137,0.012,0.0087,0.0075,0.0019,0.0012,-0.0003,0.0032,-0.0029,0.0016,0.0083,0.0051,0.0058,0.0064,0.0029,0.0031,0.0018,0.0019,0.0019,0,0.0193,0.0223,0.0204,0.0216,0.022,0.0186,0.0206,0.0196,0.016,0.0172,0.0137,0.0102,0.0058,0.0081,0.0091,0.0057,0.0018,0.0049,0.0065,0.007,0.0074,0.0036,0.0037,0.0024,0.0024,0.0023,0.0023,0,0.024,0.0259,0.0273,0.0283,0.028,0.0295,0.0282,0.0289,0.0273,0.0261,0.0275,0.0219,0.0206,0.0188,0.0144,0.0164,0.0121,0.0084,0.0043,0.0089,0.0046,0.0045,0.0032,0.003,0.0029,0.0027,0,0,0.0272,0.0302,0.0307,0.0332,0.0321,0.0333,0.0357,0.0382,0.0428,0.0383,0.0433,0.0386,0.0362,0.0343,0.0296,0.0261,0.0247,0.0183,0.0179,0.0159,0.0168,0.0088,0.0078,0.0203,0.0204,0.0204,0.0128,0,0.0315,0.037,0.0366,0.0419,0.0449,0.0435,0.047,0.0483,0.0491,0.053,0.0493,0.0514,0.0422,0.0428,0.0379,0.0291,0.0247,0.027,0.0117,0.0113,0.0045,0.0076,0.0101,0.0031,0.0126,0.0125,0.0125,0,0.0361,0.0397,0.046,0.0515,0.0529,0.0554,0.0626,0.0652,0.0692,0.07,0.0706,0.0675,0.065,0.0554,0.0425,0.0439,0.0313,0.0225,0.0219,0.0107,0.0031,-0.0002,0.0023,0.0122,0.0122,0.0122,0.0123,0,0.0412,0.0465,0.0529,0.054,0.059,0.0631,0.0665,0.071,0.0769,0.082,0.0874,0.0819,0.0823,0.0661,0.0478,0.0448,0.0317,0.0255,0.0066,0.0059,0.0033,0.0022,0.0152,0.0152,0.0152,0.0152,0.0152,0,0.0466,0.0516,0.0565,0.0602,0.0693,0.07,0.081,0.0841,0.0917,0.102,0.0974,0.1039,0.0845,0.0751,0.0539,0.0308,0.0362,0.0088,0.0038,0.007,0.0065,0.0103,0.0098,0.0149,0.015,0.015,0.0151,0,0.0511,0.0541,0.0619,0.0692,0.0718,0.0787,0.0896,0.0985,0.1048,0.1184,0.1212,0.1209,0.1089,0.0873,0.0631,0.0411,0.0183,0.0081,0.0129,0.0085,-0.0074,-0.0072,-0.0137,-0.014,-0.0143,-0.0145,-0.0147,0,0.0544,0.0586,0.0681,0.0736,0.0774,0.0875,0.0954,0.1036,0.1141,0.1293,0.1371,0.1327,0.1283,0.0908,0.0549,0.018,0.0154,-0.0056,-0.0122,-0.0059,-0.0101,-0.0095,-0.0089,-0.0108,-0.0109,-0.011,-0.0111,0,0.0598,0.0629,0.0691,0.0804,0.0894,0.101,0.1136,0.1233,0.1364,0.1484,0.1606,0.158,0.1268,0.091,0.0422,0.0173,-0.0,-0.0099,-0.0018,-0.005,-0.0041,-0.008,-0.0073,-0.0122,-0.0121,-0.012,-0.012,-0.0119,0.063,0.0682,0.0763,0.0871,0.099,0.1143,0.1256,0.1404,0.1573,0.1733,0.1699,0.1644,0.1282,0.0625,0.0267,-0.0093,-0.0103,-0.0266,-0.0257,-0.0249,-0.0243,-0.0241,-0.0358,-0.0358,-0.0359,-0.0359,-0.0359,0,0.0651,0.0723,0.0827,0.0968,0.1101,0.1177,0.1381,0.1506,0.1718,0.1765,0.1804,0.1415,0.1012,0.064,0.0087,-0.0281,-0.0269,-0.0377,-0.0275,-0.0264,-0.0254,-0.0244,-0.0362,-0.0363,-0.0363,-0.0364,0,0,0.0674,0.0753,0.0811,0.1024,0.1155,0.1366,0.1498,0.1683,0.1766,0.1801,0.1723,0.1519,0.1073,0.066,0.0223,-0.0054,-0.0078,-0.0114,-0.0084,0.0097,0.0112,-0.0174,-0.0146,0,0,0,0,0]}],[{"header":{"parameterUnit":"m.s-1","parameterCategory":2,"la1":30.2991,"la2":30.254,"lo1":-89.0895,"lo2":-89.0444,"dy":0.0017,"dx":0.0017,"nx":28,"ny":28,"refTime":"2025-06-15T09:00:00:Z","depth":"4","parameterNumber":2,"parameterNumberName":"U-component_of_CURRENTS"},"data":[0,0,0,0,0,0,0,0,0,0,0,0,0,0,0,0,0,0,0,0,0,0,0,0,0,0,0,0,0,0,0,0,0,0,0,0,0,0,0,0,0,0,0,0,0,0,0,0,0,0,0,0,0,0,0,0,0,0,0.0558,0.0559,0,0.0604,0.0604,0.0604,0.0672,0.0674,0.0675,0.0677,0.0722,0.0722,0.0721,0,0,0,0,0,0,0,0,0,0,0,0,0,0.0861,0.0852,0.0558,0.0559,0.056,0.0604,0.0604,0.0604,0.0671,0.0674,0.0676,0.0678,0.0722,0.0722,0.0721,0,0,0,0,0,0,0,0,0,0,0,0,0,0.0793,0.0849,0.0558,0.0604,0.0609,0.0604,0.0604,0.0604,0.0671,0.0674,0.0676,0.0679,0.0722,0.0722,0.0721,0.0665,0,0,0.0719,0.0719,0,0,0,0,0,0,0,0,0.0797,0.0781,0.0596,0.0601,0.0606,0.064,0.0728,0.0627,0.067,0.0641,0.0677,0.068,0.0697,0.0698,0.0692,0.0667,0.0669,0.0719,0.0719,0.0719,0.0718,0,0,0,0,0,0,0,0.0801,0.0782,0.057,0.0597,0.0603,0.0737,0.0726,0.071,0.0649,0.0644,0.065,0.0664,0.0699,0.0693,0.0694,0.067,0.0719,0.0719,0.0718,0.0718,0.0782,0.0784,0,0,0,0,0,0,0.0785,0.0783,0.0569,0.0572,0.0717,0.0728,0.0717,0.0622,0.0649,0.0658,0.0662,0.0667,0.0693,0.0695,0.0696,0.08,0.0719,0.0718,0.0718,0.078,0.0782,0.0785,0,0,0,0,0,0,0.0789,0.0761,0.0567,0.0693,0.0678,0.0718,0.0613,0.0621,0.0673,0.0664,0.0672,0.0713,0.0695,0.0697,0.0731,0.0796,0.0718,0.0717,0.0777,0.0781,0.0784,0.0899,0,0,0,0,0,0,0.0796,0.0759,0.0739,0.0686,0.067,0.0597,0.0612,0.0621,0.0677,0.0686,0.0709,0.0713,0.0697,0.0732,0.073,0.0794,0.0717,0.0775,0.0779,0.0783,0.0893,0.0906,0.0917,0,0,0,0,0,0.0804,0.0719,0.0734,0.0714,0.0617,0.0599,0.0603,0.0642,0.0678,0.0699,0.0722,0.0715,0.0757,0.0732,0.073,0.0795,0.0773,0.0778,0.0782,0.0887,0.0903,0.0917,0,0,0,0,0,0,0.0852,0.0717,0.0733,0.0617,0.0642,0.0614,0.0646,0.067,0.0703,0.0732,0.0723,0.0727,0.0791,0.0766,0.0739,0.0825,0.077,0.0775,0.0851,0.0866,0.0878,0.0943,0.0716,0,0,0,0,0,0.0849,0.0732,0.07,0.0624,0.0641,0.0663,0.0683,0.0704,0.071,0.073,0.0762,0.0785,0.0795,0.0811,0.082,0.0847,0.0873,0.0893,0.0906,0.0916,0.0968,0.1115,0.1148,0.08,0.08,0.08,0,0,0.0846,0.0767,0.0706,0.0632,0.0655,0.0681,0.0679,0.0707,0.0747,0.0726,0.0816,0.0833,0.0813,0.0861,0.0887,0.0856,0.1004,0.0922,0.0931,0.0979,0.1124,0.1159,0.1189,0.0803,0.0803,0.0802,0,0,0.08,0.0725,0.0655,0.0675,0.0709,0.0722,0.0745,0.0773,0.0816,0.0866,0.0884,0.0948,0.0953,0.098,0.0976,0.1056,0.1069,0.1064,0.1177,0.1318,0.135,0.1378,0.1353,0.1379,0.1066,0.1066,0.1066,0,0.086,0.0719,0.066,0.0657,0.07,0.0748,0.0783,0.081,0.0862,0.0912,0.0914,0.1024,0.1011,0.1087,0.1127,0.109,0.1135,0.1118,0.134,0.1369,0.1396,0.1365,0.1392,0.1072,0.1071,0.1071,0.107,0,0.0764,0.0734,0.0715,0.0704,0.0745,0.0774,0.0825,0.0902,0.0968,0.101,0.1135,0.1149,0.1236,0.1228,0.1198,0.1384,0.1334,0.1344,0.1312,0.144,0.1395,0.1421,0.1081,0.1079,0.1077,0.1075,0,0,0.0748,0.0663,0.0682,0.072,0.0783,0.0802,0.0892,0.0982,0.1071,0.1161,0.128,0.1338,0.1424,0.1432,0.1443,0.1552,0.1727,0.1556,0.1561,0.1544,0.1965,0.1729,0.1732,0.182,0.1828,0.1834,0.182,0,0.0761,0.0699,0.0685,0.0765,0.078,0.0879,0.0958,0.1055,0.1145,0.1274,0.135,0.1466,0.1474,0.1554,0.1681,0.1769,0.1822,0.1724,0.1835,0.1835,0.1626,0.1766,0.1859,0.1839,0.1845,0.1849,0.1852,0,0.07,0.0689,0.069,0.0787,0.082,0.0902,0.1077,0.1155,0.1319,0.1398,0.1567,0.1643,0.1852,0.1812,0.2067,0.2033,0.2021,0.2031,0.2031,0.1812,0.1654,0.1709,0.1899,0.1896,0.1892,0.1889,0.1886,0,0.0651,0.0711,0.0702,0.0734,0.0845,0.0942,0.1053,0.1213,0.1306,0.1525,0.1627,0.1869,0.1997,0.2156,0.2195,0.2204,0.2379,0.2373,0.2092,0.2067,0.2229,0.22,0.2487,0.2487,0.2487,0.2487,0.2487,0,0.0595,0.0632,0.0698,0.0712,0.0832,0.0942,0.111,0.1229,0.1428,0.1519,0.1736,0.1809,0.212,0.2223,0.2265,0.2262,0.2448,0.215,0.2103,0.2253,0.2229,0.2239,0.221,0.2486,0.2487,0.2487,0.2487,0,0.0476,0.0497,0.0536,0.0694,0.0778,0.0864,0.1125,0.1221,0.1443,0.1576,0.1667,0.1868,0.2011,0.2159,0.2324,0.2295,0.2322,0.22,0.2254,0.2201,0.1884,0.1861,0.2008,0.2001,0.1995,0.199,0.1985,0,0.0365,0.0351,0.0494,0.0549,0.0637,0.0818,0.093,0.119,0.1275,0.1523,0.1535,0.1731,0.1827,0.1908,0.2045,0.2117,0.2046,0.2054,0.2096,0.1923,0.1863,0.1849,0.1835,0.1976,0.1974,0.1972,0.1971,0,0.0221,0.0263,0.0291,0.0399,0.0527,0.0656,0.0839,0.0914,0.1164,0.1369,0.1445,0.1545,0.1609,0.1751,0.1787,0.1808,0.2134,0.1991,0.2005,0.2044,0.1885,0.1828,0.1821,0.1949,0.1953,0.1955,0.1956,0,0.0129,0.0106,0.0148,0.0262,0.0377,0.047,0.0602,0.0752,0.0908,0.1215,0.1171,0.1355,0.1524,0.1563,0.158,0.1647,0.1653,0.1676,0.1707,0.1732,0.1656,0.1414,0.1337,0,0,0,0,0,0.0051,0.001,0.004,0.0156,0.0248,0.0347,0.0518,0.0651,0.0894,0.092,0.1093,0.1136,0.1251,0.13,0.132,0.1398,0.1615,0.141,0.1645,0.1832,0.1856,0.1796,0,0,0,0,0,0,-0.0007,-0.004,-0.0021,0.0045,0.0118,0.0234,0.0334,0.0489,0.0547,0.0791,0.0851,0.1063,0.1163,0.1237,0.1294,0.1319,0.1447,0.1533,0.153,0.1818,0.184,0.186,0.1806,0,0,0,0,0]},{"header":{"parameterUnit":"m.s-1","parameterCategory":2,"la1":30.2991,"la2":30.254,"lo1":-89.0895,"lo2":-89.0444,"dy":0.0017,"dx":0.0017,"nx":28,"ny":28,"refTime":"2025-06-15T09:00:00:Z","depth":"4","parameterNumber":3,"parameterNumberName":"V-component_of_CURRENTS"},"data":[0,0,0,0,0,0,0,0,0,0,0,0,0,0,0,0,0,0,0,0,0,0,0,0,0,0,0,0,0,0,0,0,0,0,0,0,0,0,0,0,0,0,0,0,0,0,0,0,0,0,0,0,0,0,0,0,0,0,0.0279,0.028,0,0.0295,0.0294,0.0294,0.0214,0.0213,0.0212,0.0211,0.0063,0.006,0.0057,0,0,0,0,0,0,0,0,0,0,0,0,0,0.0126,0.0129,0.0279,0.028,0.0281,0.0295,0.0294,0.0293,0.0215,0.0213,0.0211,0.021,0.0064,0.006,0.0057,0,0,0,0,0,0,0,0,0,0,0,0,0,0.0162,0.013,0.0278,0.0252,0.025,0.0295,0.0294,0.0293,0.0215,0.0213,0.0211,0.0209,0.0065,0.0061,0.0057,0.0069,0,0,0.0044,0.0042,0,0,0,0,0,0,0,0,0.016,0.0166,0.0254,0.0254,0.0252,0.026,0.0187,0.0214,0.0215,0.0216,0.0211,0.0208,0.0122,0.0113,0.0107,0.0062,0.0056,0.0044,0.0041,0.0039,0.0038,0,0,0,0,0,0,0,0.0158,0.0165,0.0274,0.0256,0.0255,0.0222,0.0224,0.0191,0.0168,0.0216,0.0213,0.0234,0.0119,0.0111,0.0103,0.0054,0.0044,0.004,0.0037,0.0036,-0.0169,-0.0172,0,0,0,0,0,0,0.0184,0.0164,0.0273,0.0275,0.0213,0.0227,0.0229,0.0251,0.0172,0.0163,0.0235,0.023,0.0119,0.0108,0.0097,-0.0038,0.0039,0.0035,0.0033,-0.0166,-0.017,-0.0173,0,0,0,0,0,0,0.0181,0.0194,0.0273,0.0228,0.0237,0.0233,0.0257,0.0252,0.021,0.019,0.0175,0.0196,0.0117,0.0103,0.002,-0.0039,0.0034,0.003,-0.0163,-0.0167,-0.0171,-0.0215,0,0,0,0,0,0,0.0176,0.0192,0.0202,0.023,0.0241,0.0298,0.026,0.0254,0.0234,0.0225,0.0153,0.0139,0.0115,0.0026,0.0015,-0.0043,0.0027,-0.0159,-0.0165,-0.017,-0.021,-0.0221,-0.023,0,0,0,0,0,0.017,0.0223,0.0202,0.0215,0.026,0.0301,0.0301,0.0284,0.0234,0.0231,0.0148,0.014,-0.0018,0.0021,0.0009,-0.0052,-0.0156,-0.0163,-0.0169,-0.0206,-0.0218,-0.0229,0,0,0,0,0,0,0.0163,0.0222,0.0199,0.0263,0.0271,0.0291,0.0313,0.0268,0.0203,0.0176,0.0115,0.0097,-0.0005,-0.002,0.0023,-0.0132,-0.0094,-0.0103,-0.0117,-0.013,-0.0139,-0.0101,0.0023,0,0,0,0,0,0.0169,0.0216,0.0244,0.0287,0.0305,0.0287,0.0293,0.0269,0.0234,0.0203,0.0121,0.0039,-0.0032,-0.0074,-0.0132,-0.02,-0.0183,-0.0254,-0.0264,-0.0272,-0.0252,-0.0245,-0.0251,-0.0195,-0.0195,-0.0195,0,0,0.0168,0.0217,0.0233,0.0288,0.0299,0.0304,0.0284,0.0301,0.0243,0.0197,0.0069,0.0003,-0.006,-0.0153,-0.02,-0.0177,-0.0294,-0.028,-0.0286,-0.0261,-0.0253,-0.0257,-0.0261,-0.0199,-0.0198,-0.0198,0,0,0.0226,0.0246,0.0303,0.031,0.0341,0.0322,0.0315,0.0284,0.0216,0.0115,0.0042,-0.0064,-0.017,-0.024,-0.0281,-0.0378,-0.0347,-0.0404,-0.0419,-0.0414,-0.0417,-0.0419,-0.0453,-0.0458,-0.0406,-0.0406,-0.0406,0,0.0213,0.0287,0.0319,0.0364,0.0357,0.0319,0.0323,0.0263,0.0173,0.01,0.0065,-0.0151,-0.0215,-0.033,-0.0369,-0.0401,-0.0381,-0.0365,-0.0421,-0.0422,-0.0423,-0.0458,-0.0462,-0.0409,-0.0408,-0.0408,-0.0408,0,0.0293,0.0333,0.0376,0.0396,0.0385,0.0398,0.0327,0.0244,0.0134,0.0052,-0.0114,-0.0215,-0.033,-0.0391,-0.0405,-0.0474,-0.0456,-0.0431,-0.0375,-0.043,-0.0466,-0.0469,-0.0413,-0.0412,-0.0411,-0.041,0,0,0.0294,0.0407,0.0409,0.0422,0.0392,0.0398,0.0289,0.0194,0.0109,-0.0041,-0.0162,-0.0324,-0.038,-0.0429,-0.0489,-0.0501,-0.053,-0.0455,-0.0453,-0.0462,-0.0522,-0.0481,-0.0481,-0.0479,-0.0479,-0.0479,-0.0559,0,0.0326,0.0439,0.0445,0.0452,0.0487,0.0393,0.0301,0.0185,0.0057,-0.0076,-0.0223,-0.0339,-0.0393,-0.0442,-0.0474,-0.0488,-0.0531,-0.0512,-0.0489,-0.049,-0.0422,-0.048,-0.0479,-0.0561,-0.0562,-0.0563,-0.0563,0,0.0366,0.0447,0.0506,0.0498,0.0494,0.0447,0.0296,0.0207,0.002,-0.0078,-0.0222,-0.0309,-0.041,-0.0425,-0.0496,-0.0459,-0.0497,-0.0521,-0.0524,-0.0457,-0.0452,-0.0487,-0.0569,-0.0568,-0.0568,-0.0568,-0.0567,0,0.0385,0.0452,0.0506,0.0506,0.0497,0.0436,0.0359,0.0188,0.0116,-0.0071,-0.0117,-0.027,-0.0332,-0.0373,-0.045,-0.0439,-0.05,-0.0497,-0.0532,-0.0532,-0.0521,-0.0517,-0.056,-0.056,-0.056,-0.056,-0.056,0,0.0411,0.045,0.0521,0.0563,0.0545,0.0474,0.0397,0.0283,0.0141,0.0087,-0.0095,-0.0147,-0.0299,-0.0367,-0.0427,-0.0482,-0.0489,-0.0537,-0.0538,-0.0551,-0.0549,-0.0527,-0.0522,-0.0563,-0.0562,-0.0562,-0.0561,0,0.0424,0.0494,0.0575,0.0595,0.0588,0.0552,0.0468,0.0428,0.0271,0.0203,0.0166,-0.0034,-0.0114,-0.0278,-0.0377,-0.0446,-0.0506,-0.0545,-0.0579,-0.058,-0.0558,-0.0555,-0.0571,-0.057,-0.0569,-0.0568,-0.0568,0,0.0443,0.0516,0.0623,0.0667,0.0676,0.0636,0.0632,0.0499,0.0471,0.0298,0.0299,0.0139,0.0016,-0.0141,-0.0295,-0.0461,-0.0493,-0.0556,-0.0542,-0.0554,-0.0554,-0.0553,-0.0551,-0.0566,-0.0566,-0.0566,-0.0566,0,0.0478,0.0542,0.0602,0.072,0.0758,0.0795,0.0763,0.0737,0.0603,0.0551,0.0407,0.0234,0.0096,-0.0096,-0.0264,-0.0368,-0.0509,-0.0547,-0.055,-0.0537,-0.0549,-0.0549,-0.0549,-0.0563,-0.0563,-0.0563,-0.0563,0,0.0477,0.0514,0.063,0.07,0.0799,0.0846,0.0833,0.0795,0.0736,0.056,0.0549,0.0314,0.0185,-0.0046,-0.0156,-0.0294,-0.0323,-0.0364,-0.0377,-0.0383,-0.0301,-0.0286,-0.0217,0,0,0,0,0,0.0463,0.0508,0.0597,0.0681,0.0802,0.0852,0.0886,0.0866,0.0798,0.0737,0.0607,0.0481,0.0202,0.0067,-0.0058,-0.0134,-0.0346,-0.0283,-0.0399,-0.0545,-0.0549,-0.048,0,0,0,0,0,0,0.0446,0.0529,0.0572,0.0662,0.0726,0.0831,0.085,0.0819,0.0756,0.068,0.0542,0.0483,0.0227,0.0287,-0.0051,-0.0096,-0.018,-0.0399,-0.0401,-0.0543,-0.0546,-0.0549,-0.048,0,0,0,0,0]}]]